Portada
METAR-TAF:

METAR-TAF

Aeroports :

Aitkin Municipal Airport (Steve Kurtz Field)

Aitkin, Minnesota, Estats Units d'Amèrica

latitud: 46-33N, longitud: 093-41W, altitud: 367 m

Observació

L'informe es va fer fa 44 minuts, a les 18:35 UTC
Vent 12 kt del Nord/Nord-Oest amb ràfegues de 17 kt
Temperatura 11°C
Humitat 58%
Pressió 1021 hPa
Visibilitat: 16.1 km
Núvols disperses a una alçada de 3900 ft
Cel ennuvolat a una alçada de 4800 ft

METAR: KAIT 211835Z AUTO 34012G17KT 10SM SCT039 BKN048 11/03 A3015 RMK AO2

Hora: 14:19 (19:19 UTC)


TAF: manca

Observacions i pronòstics meteorològics de més de 4000 aeroports (METAR i TAF).

Les estacions disponibles són els punts grocs i vermells al mapa.

Posi el ratolí al punt desitjat per veure el nom de l'estació.

Feu clic per veure les observacions i els pronòstics meteorològics.

Per canviar el mapa: feu clic els botons verds amb una creu de color negre per apropar; al botó verd amb un guió per allunyar la imatge; o en les fletxes verdes per a mapes adjacents.


METAR-TAF: